Weather in Dzhalinda

Russia / Amur Oblast     53°29′17″N   123°53′45″E
temp.,
°C
wind,
m/s
gust,
m/s
humid.,
%
clouds,
%
prec.,
mm/h
press.,
hPa
HPBL,
m
27 february, sat
sat2700:00−18e61486100 0.0 1027434
03:00−17ese71495100 1.3 1022679
06:00−17ese81494100 2.1 1018851
09:00−15ese81493100 3.3 1014815
12:00−15ese61293100 1.3 1011789
15:00−15ene4793100 2.6 1011688
18:00−16nnw3792100 0.4 1014391
21:00−22wnw239574 0.4 101947
28 february, sun
sun2800:00−22wnw312873 0.0 1022342
03:00−22nw414751 0.0 1025576
06:00−24wnw414760 0.0 1029622
09:00−25wnw313810 0.0 1031646
12:00−18nnw510670 0.0 10321240
15:00−17nw47660 0.0 10311614
18:00−20nnw228192 0.0 103320
21:00−24ne128188 0.0 103520
1 march, mon
mon100:00−26nnw1182100 0.0 103620
03:00−26nw1281100 0.0 103719
06:00−28wnw1281100 0.0 103719
09:00−27wnw1183100 0.0 103855
12:00−21w348171 0.0 1036521
15:00−19w237356 0.0 10331321
18:00−23wnw2288100 0.0 103320
21:00−29w019360 0.0 103419
2 march, tue
tue200:00−31sse11958 0.0 103319
03:00−32ene00974 0.0 103319
06:00−32ese119690 0.0 103219
09:00−29e119479 0.0 103148
12:00−22se228824 0.0 1027374
15:00−19ese358962 0.0 1023520
18:00−19e4994100 0.1 1022491
21:00−19ese51195100 0.2 1021510
3 march, wed
wed300:00−20e51196100 0.1 1019382
03:00−21e51097100 0.4 1016405
06:00−21e4997100 0.8 1015446
09:00−23ene3796100 1.0 1014331
12:00−19ne2289100 0.1 1012490
15:00−17nnw1281100 0.2 1011867
18:00−19nw2592100 0.1 1013166
21:00−26nw238891 0.1 101628